Location: Unspecified
(0.0000°N, 0.0000°E)
Time: 01:14:21
(UTC+02:00)

JASON 3 - Pass Details

Date: 05 October 2021
Orbit: 1332 x 1343 km, 66.0° (Epoch: 18 October)

Event Time Altitude Azimuth Distance (km) Brightness Sun altitude
Rises 06:51:11 0° 188° (S) 4,345 ? -14.3°
Reaches altitude 10° 06:54:10 10° 182° (S) 3,372 ? -13.5°
Maximum altitude 07:01:56 47° 110° (ESE) 1,707 ? -11.6°
Drops below altitude 10° 07:09:39 10° 39° (NE) 3,371 ? -9.7°
Sets 07:12:37 0° 33° (NNE) 4,343 ? -8.9°
